Year,Month,Day,Hour,Minute,Value (Times are PST for temperature in C)
2018,09,28,00,00,18.30
2018,09,28,00,01,18.30
2018,09,28,00,02,18.30
2018,09,28,00,03,18.30
2018,09,28,00,04,18.20
2018,09,28,00,05,18.20
2018,09,28,00,06,18.20
2018,09,28,00,07,18.20
2018,09,28,00,08,18.20
2018,09,28,00,09,18.20
2018,09,28,00,10,18.20
2018,09,28,00,11,18.20
2018,09,28,00,12,18.20
2018,09,28,00,13,18.20
2018,09,28,00,14,18.10
2018,09,28,00,15,18.10
2018,09,28,00,16,18.10
2018,09,28,00,17,18.00
2018,09,28,00,18,18.00
2018,09,28,00,19,18.00
2018,09,28,00,20,18.00
2018,09,28,00,21,18.00
2018,09,28,00,22,17.90
2018,09,28,00,23,17.90
2018,09,28,00,24,17.90
2018,09,28,00,25,17.90
2018,09,28,00,26,17.80
2018,09,28,00,27,17.80
2018,09,28,00,28,17.70
2018,09,28,00,29,17.70
2018,09,28,00,30,17.70
2018,09,28,00,31,17.70
2018,09,28,00,32,17.70
2018,09,28,00,33,17.70
2018,09,28,00,34,17.70
2018,09,28,00,35,17.80
2018,09,28,00,36,17.80
2018,09,28,00,37,17.90
2018,09,28,00,38,17.90
2018,09,28,00,39,17.90
2018,09,28,00,40,17.90
2018,09,28,00,41,17.90
2018,09,28,00,42,17.90
2018,09,28,00,43,17.80
2018,09,28,00,44,17.80
2018,09,28,00,45,17.70
2018,09,28,00,46,17.70
2018,09,28,00,47,17.70
2018,09,28,00,48,17.60
2018,09,28,00,49,17.60
2018,09,28,00,50,17.60
2018,09,28,00,51,17.60
2018,09,28,00,52,17.60
2018,09,28,00,53,17.60
2018,09,28,00,54,17.60
2018,09,28,00,55,17.60
2018,09,28,00,56,17.60
2018,09,28,00,57,17.60
2018,09,28,00,58,17.60
2018,09,28,00,59,17.60
2018,09,28,01,00,17.60
2018,09,28,01,01,17.70
2018,09,28,01,02,17.70
2018,09,28,01,03,17.70
2018,09,28,01,04,17.70
2018,09,28,01,05,17.70
2018,09,28,01,06,17.70
2018,09,28,01,07,17.70
2018,09,28,01,08,17.70
2018,09,28,01,09,17.70
2018,09,28,01,10,17.60
2018,09,28,01,11,17.60
2018,09,28,01,12,17.60
2018,09,28,01,13,17.60
2018,09,28,01,14,17.60
2018,09,28,01,15,17.60
2018,09,28,01,16,17.60
2018,09,28,01,17,17.50
2018,09,28,01,18,17.50
2018,09,28,01,19,17.40
2018,09,28,01,20,17.40
2018,09,28,01,21,17.40
2018,09,28,01,22,17.40
2018,09,28,01,23,17.40
2018,09,28,01,24,17.40
2018,09,28,01,25,17.40
2018,09,28,01,26,17.40
2018,09,28,01,27,17.40
2018,09,28,01,28,17.30
2018,09,28,01,29,17.30
2018,09,28,01,30,17.30
2018,09,28,01,31,17.30
2018,09,28,01,32,17.40
2018,09,28,01,33,17.40
2018,09,28,01,34,17.40
2018,09,28,01,35,17.40
2018,09,28,01,36,17.50
2018,09,28,01,37,17.50
2018,09,28,01,38,17.60
2018,09,28,01,39,17.60
2018,09,28,01,40,17.60
2018,09,28,01,41,17.60
2018,09,28,01,42,17.50
2018,09,28,01,43,17.50
2018,09,28,01,44,17.40
2018,09,28,01,45,17.40
2018,09,28,01,46,17.30
2018,09,28,01,47,17.30
2018,09,28,01,48,17.20
2018,09,28,01,49,17.20
2018,09,28,01,50,17.20
2018,09,28,01,51,17.20
2018,09,28,01,52,17.20
2018,09,28,01,53,17.10
2018,09,28,01,54,17.10
2018,09,28,01,55,17.00
2018,09,28,01,56,17.00
2018,09,28,01,57,16.90
2018,09,28,01,58,16.90
2018,09,28,01,59,16.90
2018,09,28,02,00,16.80
2018,09,28,02,01,16.80
2018,09,28,02,02,16.80
2018,09,28,02,03,16.70
2018,09,28,02,04,16.70
2018,09,28,02,05,16.60
2018,09,28,02,06,16.60
2018,09,28,02,07,16.60
2018,09,28,02,08,16.60
2018,09,28,02,09,16.60
2018,09,28,02,10,16.60
2018,09,28,02,11,16.60
2018,09,28,02,12,16.50
2018,09,28,02,13,16.50
2018,09,28,02,14,16.50
2018,09,28,02,15,16.40
2018,09,28,02,16,16.40
2018,09,28,02,17,16.40
2018,09,28,02,18,16.50
2018,09,28,02,19,16.60
2018,09,28,02,20,16.60
2018,09,28,02,21,16.60
2018,09,28,02,22,16.60
2018,09,28,02,23,16.60
2018,09,28,02,24,16.60
2018,09,28,02,25,16.60
2018,09,28,02,26,16.60
2018,09,28,02,27,16.60
2018,09,28,02,28,16.60
2018,09,28,02,29,16.70
2018,09,28,02,30,16.70
2018,09,28,02,31,16.80
2018,09,28,02,32,16.80
2018,09,28,02,33,16.80
2018,09,28,02,34,16.80
2018,09,28,02,35,16.80
2018,09,28,02,36,16.70
2018,09,28,02,37,16.70
2018,09,28,02,38,16.70
2018,09,28,02,39,16.70
2018,09,28,02,40,16.70
2018,09,28,02,41,16.80
2018,09,28,02,42,16.80
2018,09,28,02,43,16.80
2018,09,28,02,44,16.90
2018,09,28,02,45,16.90
2018,09,28,02,46,16.90
2018,09,28,02,47,16.90
2018,09,28,02,48,16.80
2018,09,28,02,49,16.80
2018,09,28,02,50,16.80
2018,09,28,02,51,16.90
2018,09,28,02,52,16.90
2018,09,28,02,53,16.90
2018,09,28,02,54,16.80
2018,09,28,02,55,16.80
2018,09,28,02,56,16.70
2018,09,28,02,57,16.70
2018,09,28,02,58,16.70
2018,09,28,02,59,16.80
2018,09,28,03,00,16.80
2018,09,28,03,01,16.80
2018,09,28,03,02,16.80
2018,09,28,03,03,16.70
2018,09,28,03,04,16.70
2018,09,28,03,05,16.70
2018,09,28,03,06,16.70
2018,09,28,03,07,16.60
2018,09,28,03,08,16.60
2018,09,28,03,09,16.70
2018,09,28,03,10,16.70
2018,09,28,03,11,16.70
2018,09,28,03,12,16.70
2018,09,28,03,13,16.70
2018,09,28,03,14,16.70
2018,09,28,03,15,16.60
2018,09,28,03,16,16.50
2018,09,28,03,17,16.50
2018,09,28,03,18,16.40
2018,09,28,03,19,16.30
2018,09,28,03,20,16.20
2018,09,28,03,21,16.20
2018,09,28,03,22,16.10
2018,09,28,03,23,16.10
2018,09,28,03,24,16.10
2018,09,28,03,25,16.00
2018,09,28,03,26,16.00
2018,09,28,03,27,16.00
2018,09,28,03,28,16.10
2018,09,28,03,29,16.10
2018,09,28,03,30,16.20
2018,09,28,03,31,16.30
2018,09,28,03,32,16.40
2018,09,28,03,33,16.50
2018,09,28,03,34,16.60
2018,09,28,03,35,16.60
2018,09,28,03,36,16.60
2018,09,28,03,37,16.60
2018,09,28,03,38,16.60
2018,09,28,03,39,16.60
2018,09,28,03,40,16.60
2018,09,28,03,41,16.50
2018,09,28,03,42,16.50
2018,09,28,03,43,16.60
2018,09,28,03,44,16.60
2018,09,28,03,45,16.60
2018,09,28,03,46,16.60
2018,09,28,03,47,16.60
2018,09,28,03,48,16.60
2018,09,28,03,49,16.60
2018,09,28,03,50,16.60
2018,09,28,03,51,16.60
2018,09,28,03,52,16.60
2018,09,28,03,53,16.60
2018,09,28,03,54,16.70
2018,09,28,03,55,16.70
2018,09,28,03,56,16.70
2018,09,28,03,57,16.70
2018,09,28,03,58,16.80
2018,09,28,03,59,16.80
2018,09,28,04,00,16.80
2018,09,28,04,01,16.80
2018,09,28,04,02,16.80
2018,09,28,04,03,16.80
2018,09,28,04,04,16.80
2018,09,28,04,05,16.80
2018,09,28,04,06,16.70
2018,09,28,04,07,16.70
2018,09,28,04,08,16.70
2018,09,28,04,09,16.70
2018,09,28,04,10,16.70
2018,09,28,04,11,16.60
2018,09,28,04,12,16.60
2018,09,28,04,13,16.50
2018,09,28,04,14,16.40
2018,09,28,04,15,16.40
2018,09,28,04,16,16.30
2018,09,28,04,17,16.30
2018,09,28,04,18,16.30
2018,09,28,04,19,16.30
2018,09,28,04,20,16.30
2018,09,28,04,21,16.30
2018,09,28,04,22,16.30
2018,09,28,04,23,16.30
2018,09,28,04,24,16.40
2018,09,28,04,25,16.40
2018,09,28,04,26,16.30
2018,09,28,04,27,16.30
2018,09,28,04,28,16.20
2018,09,28,04,29,16.20
2018,09,28,04,30,16.20
2018,09,28,04,31,16.10
2018,09,28,04,32,16.10
2018,09,28,04,33,16.10
2018,09,28,04,34,16.10
2018,09,28,04,35,16.10
2018,09,28,04,36,16.10
2018,09,28,04,37,16.10
2018,09,28,04,38,16.00
2018,09,28,04,39,16.00
2018,09,28,04,40,16.00
2018,09,28,04,41,15.90
2018,09,28,04,42,15.90
2018,09,28,04,43,15.90
2018,09,28,04,44,15.90
2018,09,28,04,45,15.90
2018,09,28,04,46,15.80
2018,09,28,04,47,15.80
2018,09,28,04,48,15.80
2018,09,28,04,49,15.70
2018,09,28,04,50,15.70
2018,09,28,04,51,15.70
2018,09,28,04,52,15.70
2018,09,28,04,53,15.70
2018,09,28,04,54,15.70
2018,09,28,04,55,15.70
2018,09,28,04,56,15.70
2018,09,28,04,57,15.70
2018,09,28,04,58,15.70
2018,09,28,04,59,15.70
2018,09,28,05,00,15.70
2018,09,28,05,01,15.70
2018,09,28,05,02,15.70
2018,09,28,05,03,15.70
2018,09,28,05,04,15.70
2018,09,28,05,05,15.70
2018,09,28,05,06,15.70
2018,09,28,05,07,15.70
2018,09,28,05,08,15.80
2018,09,28,05,09,15.80
2018,09,28,05,10,15.80
2018,09,28,05,11,15.80
2018,09,28,05,12,15.80
2018,09,28,05,13,15.70
2018,09,28,05,14,15.70
2018,09,28,05,15,15.70
2018,09,28,05,16,15.70
2018,09,28,05,17,15.80
2018,09,28,05,18,15.80
2018,09,28,05,19,15.80
2018,09,28,05,20,15.70
2018,09,28,05,21,15.70
2018,09,28,05,22,15.60
2018,09,28,05,23,15.50
2018,09,28,05,24,15.40
2018,09,28,05,25,15.40
2018,09,28,05,26,15.30
2018,09,28,05,27,15.30
2018,09,28,05,28,15.30
2018,09,28,05,29,15.30
2018,09,28,05,30,15.30
2018,09,28,05,31,15.30
2018,09,28,05,32,15.30
2018,09,28,05,33,15.30
2018,09,28,05,34,15.30
2018,09,28,05,35,15.30
2018,09,28,05,36,15.30
2018,09,28,05,37,15.30
2018,09,28,05,38,15.30
2018,09,28,05,39,15.20
2018,09,28,05,40,15.20
2018,09,28,05,41,15.20
2018,09,28,05,42,15.20
2018,09,28,05,43,15.20
2018,09,28,05,44,15.10
2018,09,28,05,45,15.10
2018,09,28,05,46,15.10
2018,09,28,05,47,15.10
2018,09,28,05,48,15.00
2018,09,28,05,49,15.00
2018,09,28,05,50,14.90
2018,09,28,05,51,14.90
2018,09,28,05,52,14.80
2018,09,28,05,53,14.80
2018,09,28,05,54,14.70
2018,09,28,05,55,14.70
2018,09,28,05,56,14.60
2018,09,28,05,57,14.60
2018,09,28,05,58,14.60
2018,09,28,05,59,14.50
2018,09,28,06,00,14.50
2018,09,28,06,01,14.40
2018,09,28,06,02,14.40
2018,09,28,06,03,14.40
2018,09,28,06,04,14.30
2018,09,28,06,05,14.30
2018,09,28,06,06,14.30
2018,09,28,06,07,14.30
2018,09,28,06,08,14.30
2018,09,28,06,09,14.20
2018,09,28,06,10,14.20
2018,09,28,06,11,14.20
2018,09,28,06,12,14.20
2018,09,28,06,13,14.20
2018,09,28,06,14,14.10
2018,09,28,06,15,14.10
2018,09,28,06,16,14.10
2018,09,28,06,17,14.10
2018,09,28,06,18,14.10
2018,09,28,06,19,14.10
2018,09,28,06,20,14.10
2018,09,28,06,21,14.10
2018,09,28,06,22,14.10
2018,09,28,06,23,14.10
2018,09,28,06,24,14.10
2018,09,28,06,25,14.20
2018,09,28,06,26,14.20
2018,09,28,06,27,14.20
2018,09,28,06,28,14.20
2018,09,28,06,29,14.30
2018,09,28,06,30,14.40
2018,09,28,06,31,14.50
2018,09,28,06,32,14.60
2018,09,28,06,33,14.70
2018,09,28,06,34,14.80
2018,09,28,06,35,14.80
2018,09,28,06,36,14.90
2018,09,28,06,37,14.90
2018,09,28,06,38,15.00
2018,09,28,06,39,15.10
2018,09,28,06,40,15.10
2018,09,28,06,41,15.20
2018,09,28,06,42,15.30
2018,09,28,06,43,15.30
2018,09,28,06,44,15.40
2018,09,28,06,45,15.50
2018,09,28,06,46,15.50
2018,09,28,06,47,15.60
2018,09,28,06,48,15.70
2018,09,28,06,49,15.70
2018,09,28,06,50,15.70
2018,09,28,06,51,15.60
2018,09,28,06,52,15.60
2018,09,28,06,53,15.60
2018,09,28,06,54,15.60
2018,09,28,06,55,15.60
2018,09,28,06,56,15.60
2018,09,28,06,57,15.50
2018,09,28,06,58,15.50
2018,09,28,06,59,15.50
2018,09,28,07,00,15.50
2018,09,28,07,01,15.50
2018,09,28,07,02,15.50
2018,09,28,07,03,15.50
2018,09,28,07,04,15.50
2018,09,28,07,05,15.40
2018,09,28,07,06,15.40
2018,09,28,07,07,15.40
2018,09,28,07,08,15.40
2018,09,28,07,09,15.40
2018,09,28,07,10,15.40
2018,09,28,07,11,15.40
2018,09,28,07,12,15.30
2018,09,28,07,13,15.30
2018,09,28,07,14,15.20
2018,09,28,07,15,15.20
2018,09,28,07,16,15.10
2018,09,28,07,17,15.00
2018,09,28,07,18,14.90
2018,09,28,07,19,14.80
2018,09,28,07,20,14.70
2018,09,28,07,21,14.60
2018,09,28,07,22,14.60
2018,09,28,07,23,14.50
2018,09,28,07,24,14.40
2018,09,28,07,25,14.30
2018,09,28,07,26,14.30
2018,09,28,07,27,14.20
2018,09,28,07,28,14.20
2018,09,28,07,29,14.10
2018,09,28,07,30,14.10
2018,09,28,07,31,14.10
2018,09,28,07,32,14.10
2018,09,28,07,33,14.10
2018,09,28,07,34,14.00
2018,09,28,07,35,14.00
2018,09,28,07,36,14.00
2018,09,28,07,37,13.90
2018,09,28,07,38,13.90
2018,09,28,07,39,13.90
2018,09,28,07,40,13.90
2018,09,28,07,41,13.90
2018,09,28,07,42,13.90
2018,09,28,07,43,13.90
2018,09,28,07,44,13.80
2018,09,28,07,45,13.80
2018,09,28,07,46,13.80
2018,09,28,07,47,13.80
2018,09,28,07,48,13.80
2018,09,28,07,49,13.70
2018,09,28,07,50,13.70
2018,09,28,07,51,13.70
2018,09,28,07,52,13.70
2018,09,28,07,53,13.70
2018,09,28,07,54,13.70
2018,09,28,07,55,13.70
2018,09,28,07,56,13.70
2018,09,28,07,57,13.70
2018,09,28,07,58,13.70
2018,09,28,07,59,13.70
2018,09,28,08,00,13.70
2018,09,28,08,01,13.70
2018,09,28,08,02,13.70
2018,09,28,08,03,13.70
2018,09,28,08,04,13.70
2018,09,28,08,05,13.70
2018,09,28,08,06,13.70
2018,09,28,08,07,13.70
2018,09,28,08,08,13.70
2018,09,28,08,09,13.70
2018,09,28,08,10,13.70
2018,09,28,08,11,13.70
2018,09,28,08,12,13.80
2018,09,28,08,13,13.80
2018,09,28,08,14,13.80
2018,09,28,08,15,13.80
2018,09,28,08,16,13.80
2018,09,28,08,17,13.80
2018,09,28,08,18,13.80
2018,09,28,08,19,13.80
2018,09,28,08,20,13.80
2018,09,28,08,21,13.80
2018,09,28,08,22,13.80
2018,09,28,08,23,13.80
2018,09,28,08,24,13.80
2018,09,28,08,25,13.80
2018,09,28,08,26,13.80
2018,09,28,08,27,13.80
2018,09,28,08,28,13.80
2018,09,28,08,29,13.80
2018,09,28,08,30,13.80
2018,09,28,08,31,13.80
2018,09,28,08,32,13.80
2018,09,28,08,33,13.80
2018,09,28,08,34,13.90
2018,09,28,08,35,13.90
2018,09,28,08,36,14.00
2018,09,28,08,37,14.00
2018,09,28,08,38,14.10
2018,09,28,08,39,14.10
2018,09,28,08,40,14.10
2018,09,28,08,41,14.10
2018,09,28,08,42,14.10
2018,09,28,08,43,14.10
2018,09,28,08,44,14.10
2018,09,28,08,45,14.10
2018,09,28,08,46,14.00
2018,09,28,08,47,14.00
2018,09,28,08,48,14.00
2018,09,28,08,49,14.00
2018,09,28,08,50,14.00
2018,09,28,08,51,14.00
2018,09,28,08,52,13.90
2018,09,28,08,53,13.90
2018,09,28,08,54,13.90
2018,09,28,08,55,14.00
2018,09,28,08,56,14.00
2018,09,28,08,57,14.00
2018,09,28,08,58,14.00
2018,09,28,08,59,13.90
2018,09,28,09,00,14.00
2018,09,28,09,01,14.00
2018,09,28,09,02,14.00
2018,09,28,09,03,14.00
2018,09,28,09,04,14.00
2018,09,28,09,05,14.00
2018,09,28,09,06,14.00
2018,09,28,09,07,13.90
2018,09,28,09,08,13.90
2018,09,28,09,09,13.90
2018,09,28,09,10,13.90
2018,09,28,09,11,13.90
2018,09,28,09,12,13.90
2018,09,28,09,13,13.90
2018,09,28,09,14,13.90
2018,09,28,09,15,14.00
2018,09,28,09,16,14.00
2018,09,28,09,17,14.00
2018,09,28,09,18,14.00
2018,09,28,09,19,14.10
2018,09,28,09,20,14.10
2018,09,28,09,21,14.20
2018,09,28,09,22,14.20
2018,09,28,09,23,14.20
2018,09,28,09,24,14.20
2018,09,28,09,25,14.20
2018,09,28,09,26,14.20
2018,09,28,09,27,14.20
2018,09,28,09,28,14.20
2018,09,28,09,29,14.10
2018,09,28,09,30,14.10
2018,09,28,09,31,14.10
2018,09,28,09,32,14.10
2018,09,28,09,33,14.10
2018,09,28,09,34,14.10
2018,09,28,09,35,14.20
2018,09,28,09,36,14.20
2018,09,28,09,37,14.20
2018,09,28,09,38,14.20
2018,09,28,09,39,14.20
2018,09,28,09,40,14.20
2018,09,28,09,41,14.10
2018,09,28,09,42,14.10
2018,09,28,09,43,14.10
2018,09,28,09,44,14.10
2018,09,28,09,45,14.10
2018,09,28,09,46,14.10
2018,09,28,09,47,14.10
2018,09,28,09,48,14.20
2018,09,28,09,49,14.20
2018,09,28,09,50,14.20
2018,09,28,09,51,14.20
2018,09,28,09,52,14.20
2018,09,28,09,53,14.10
2018,09,28,09,54,14.10
2018,09,28,09,55,14.10
2018,09,28,09,56,14.10
2018,09,28,09,57,14.10
2018,09,28,09,58,14.10
2018,09,28,09,59,14.10
2018,09,28,10,00,14.10
2018,09,28,10,01,14.10
2018,09,28,10,02,14.10
2018,09,28,10,03,14.10
2018,09,28,10,04,14.10
2018,09,28,10,05,14.10
2018,09,28,10,06,14.10
2018,09,28,10,07,14.10
2018,09,28,10,08,14.20
2018,09,28,10,09,14.20
2018,09,28,10,10,14.20
2018,09,28,10,11,14.20
2018,09,28,10,12,14.20
2018,09,28,10,13,14.20
2018,09,28,10,14,14.20
2018,09,28,10,15,14.20
2018,09,28,10,16,14.20
2018,09,28,10,17,14.20
2018,09,28,10,18,14.20
2018,09,28,10,19,14.20
2018,09,28,10,20,14.30
2018,09,28,10,21,14.30
2018,09,28,10,22,14.40
2018,09,28,10,23,14.40
2018,09,28,10,24,14.50
2018,09,28,10,25,14.60
2018,09,28,10,26,14.70
2018,09,28,10,27,14.80
2018,09,28,10,28,14.80
2018,09,28,10,29,14.90
2018,09,28,10,30,14.90
2018,09,28,10,31,15.00
2018,09,28,10,32,15.00
2018,09,28,10,33,15.00
2018,09,28,10,34,15.10
2018,09,28,10,35,15.10
2018,09,28,10,36,15.20
2018,09,28,10,37,15.30
2018,09,28,10,38,15.40
2018,09,28,10,39,15.40
2018,09,28,10,40,15.50
2018,09,28,10,41,15.60
2018,09,28,10,42,15.60
2018,09,28,10,43,15.70
2018,09,28,10,44,15.80
2018,09,28,10,45,16.00
2018,09,28,10,46,16.10
2018,09,28,10,47,16.20
2018,09,28,10,48,16.30
2018,09,28,10,49,16.40
2018,09,28,10,50,16.50
2018,09,28,10,51,16.60
2018,09,28,10,52,16.70
2018,09,28,10,53,16.80
2018,09,28,10,54,16.80
2018,09,28,10,55,16.90
2018,09,28,10,56,17.10
2018,09,28,10,57,17.20
2018,09,28,10,58,17.30
2018,09,28,10,59,17.40
2018,09,28,11,00,17.50
2018,09,28,11,01,17.60
2018,09,28,11,02,17.70
2018,09,28,11,03,17.80
2018,09,28,11,04,17.90
2018,09,28,11,05,18.10
2018,09,28,11,06,18.20
2018,09,28,11,07,18.20
2018,09,28,11,08,18.30
2018,09,28,11,09,18.40
2018,09,28,11,10,18.50
2018,09,28,11,11,18.60
2018,09,28,11,12,18.70
2018,09,28,11,13,18.80
2018,09,28,11,14,18.90
2018,09,28,11,15,19.00
2018,09,28,11,16,19.10
2018,09,28,11,17,19.20
2018,09,28,11,18,19.30
2018,09,28,11,19,19.30
2018,09,28,11,20,19.40
2018,09,28,11,21,19.50
2018,09,28,11,22,19.60
2018,09,28,11,23,19.70
2018,09,28,11,24,19.70
2018,09,28,11,25,19.70
2018,09,28,11,26,19.80
2018,09,28,11,27,19.90
2018,09,28,11,28,19.90
2018,09,28,11,29,20.00
2018,09,28,11,30,20.00
2018,09,28,11,31,20.10
2018,09,28,11,32,20.10
2018,09,28,11,33,20.20
2018,09,28,11,34,20.30
2018,09,28,11,35,20.40
2018,09,28,11,36,20.40
2018,09,28,11,37,20.50
2018,09,28,11,38,20.50
2018,09,28,11,39,20.60
2018,09,28,11,40,20.60
2018,09,28,11,41,20.60
2018,09,28,11,42,20.60
2018,09,28,11,43,20.70
2018,09,28,11,44,20.70
2018,09,28,11,45,20.70
2018,09,28,11,46,20.80
2018,09,28,11,47,20.80
2018,09,28,11,48,20.80
2018,09,28,11,49,20.90
2018,09,28,11,50,21.00
2018,09,28,11,51,21.00
2018,09,28,11,52,21.10
2018,09,28,11,53,21.10
2018,09,28,11,54,21.10
2018,09,28,11,55,21.20
2018,09,28,11,56,21.30
2018,09,28,11,57,21.30
2018,09,28,11,58,21.40
2018,09,28,11,59,21.50
2018,09,28,12,00,21.60
2018,09,28,12,01,21.60
2018,09,28,12,02,21.50
2018,09,28,12,03,21.40
2018,09,28,12,04,21.30
2018,09,28,12,05,21.30
2018,09,28,12,06,21.30
2018,09,28,12,07,21.20
2018,09,28,12,08,21.20
2018,09,28,12,09,21.20
2018,09,28,12,10,21.20
2018,09,28,12,11,21.20
2018,09,28,12,12,21.20
2018,09,28,12,13,21.10
2018,09,28,12,14,21.10
2018,09,28,12,15,21.10
2018,09,28,12,16,21.10
2018,09,28,12,17,21.10
2018,09,28,12,18,21.10
2018,09,28,12,19,21.10
2018,09,28,12,20,21.20
2018,09,28,12,21,21.20
2018,09,28,12,22,21.30
2018,09,28,12,23,21.30
2018,09,28,12,24,21.30
2018,09,28,12,25,21.20
2018,09,28,12,26,21.20
2018,09,28,12,27,21.20
2018,09,28,12,28,21.10
2018,09,28,12,29,21.00
2018,09,28,12,30,21.00
2018,09,28,12,31,21.00
2018,09,28,12,32,21.00
2018,09,28,12,33,21.10
2018,09,28,12,34,21.10
2018,09,28,12,35,21.10
2018,09,28,12,36,21.20
2018,09,28,12,37,21.20
2018,09,28,12,38,21.20
2018,09,28,12,39,21.20
2018,09,28,12,40,21.10
2018,09,28,12,41,21.10
2018,09,28,12,42,21.10
2018,09,28,12,43,21.10
2018,09,28,12,44,21.20
2018,09,28,12,45,21.20
2018,09,28,12,46,21.20
2018,09,28,12,47,21.20
2018,09,28,12,48,21.20
2018,09,28,12,49,21.30
2018,09,28,12,50,21.30
2018,09,28,12,51,21.30
2018,09,28,12,52,21.40
2018,09,28,12,53,21.40
2018,09,28,12,54,21.50
2018,09,28,12,55,21.50
2018,09,28,12,56,21.60
2018,09,28,12,57,21.60
2018,09,28,12,58,21.60
2018,09,28,12,59,21.70
2018,09,28,13,00,21.70
2018,09,28,13,01,21.80
2018,09,28,13,02,21.80
2018,09,28,13,03,21.90
2018,09,28,13,04,22.00
2018,09,28,13,05,22.00
2018,09,28,13,06,22.10
2018,09,28,13,07,22.20
2018,09,28,13,08,22.20
2018,09,28,13,09,22.20
2018,09,28,13,10,22.20
2018,09,28,13,11,22.20
2018,09,28,13,12,22.20
2018,09,28,13,13,22.20
2018,09,28,13,14,22.20
2018,09,28,13,15,22.20
2018,09,28,13,16,22.20
2018,09,28,13,17,22.20
2018,09,28,13,18,22.20
2018,09,28,13,19,22.30
2018,09,28,13,20,22.20
2018,09,28,13,21,22.10
2018,09,28,13,22,22.00
2018,09,28,13,23,21.90
2018,09,28,13,24,21.80
2018,09,28,13,25,21.80
2018,09,28,13,26,21.70
2018,09,28,13,27,21.70
2018,09,28,13,28,21.70
2018,09,28,13,29,21.70
2018,09,28,13,30,21.70
2018,09,28,13,31,21.70
2018,09,28,13,32,21.70
2018,09,28,13,33,21.70
2018,09,28,13,34,21.80
2018,09,28,13,35,21.80
2018,09,28,13,36,21.80
2018,09,28,13,37,21.90
2018,09,28,13,38,21.90
2018,09,28,13,39,22.00
2018,09,28,13,40,22.10
2018,09,28,13,41,22.20
2018,09,28,13,42,22.40
2018,09,28,13,43,22.50
2018,09,28,13,44,22.60
2018,09,28,13,45,22.70
2018,09,28,13,46,22.70
2018,09,28,13,47,22.80
2018,09,28,13,48,22.80
2018,09,28,13,49,22.90
2018,09,28,13,50,22.90
2018,09,28,13,51,23.00
2018,09,28,13,52,23.00
2018,09,28,13,53,23.00
2018,09,28,13,54,23.10
2018,09,28,13,55,23.00
2018,09,28,13,56,23.00
2018,09,28,13,57,22.90
2018,09,28,13,58,22.90
2018,09,28,13,59,22.80
2018,09,28,14,00,22.80
2018,09,28,14,01,22.70
2018,09,28,14,02,22.60
2018,09,28,14,03,22.60
2018,09,28,14,04,22.50
2018,09,28,14,05,22.40
2018,09,28,14,06,22.40
2018,09,28,14,07,22.40
2018,09,28,14,08,22.40
2018,09,28,14,09,22.40
2018,09,28,14,10,22.50
2018,09,28,14,11,22.50
2018,09,28,14,12,22.60
2018,09,28,14,13,22.60
2018,09,28,14,14,22.70
2018,09,28,14,15,22.70
2018,09,28,14,16,22.70
2018,09,28,14,17,22.70
2018,09,28,14,18,22.70
2018,09,28,14,19,22.70
2018,09,28,14,20,22.80
2018,09,28,14,21,22.80
2018,09,28,14,22,22.70
2018,09,28,14,23,22.70
2018,09,28,14,24,22.70
2018,09,28,14,25,22.60
2018,09,28,14,26,22.50
2018,09,28,14,27,22.50
2018,09,28,14,28,22.40
2018,09,28,14,29,22.40
2018,09,28,14,30,22.30
2018,09,28,14,31,22.30
2018,09,28,14,32,22.20
2018,09,28,14,33,22.10
2018,09,28,14,34,22.00
2018,09,28,14,35,21.90
2018,09,28,14,36,21.80
2018,09,28,14,37,21.70
2018,09,28,14,38,21.70
2018,09,28,14,39,21.60
2018,09,28,14,40,21.60
2018,09,28,14,41,21.50
2018,09,28,14,42,21.60
2018,09,28,14,43,21.60
2018,09,28,14,44,21.70
2018,09,28,14,45,21.70
2018,09,28,14,46,21.80
2018,09,28,14,47,21.90
2018,09,28,14,48,22.00
2018,09,28,14,49,22.00
2018,09,28,14,50,22.10
2018,09,28,14,51,22.10
2018,09,28,14,52,22.20
2018,09,28,14,53,22.30
2018,09,28,14,54,22.30
2018,09,28,14,55,22.30
2018,09,28,14,56,22.30
2018,09,28,14,57,22.30
2018,09,28,14,58,22.30
2018,09,28,14,59,22.20
2018,09,28,15,00,22.20
2018,09,28,15,01,22.20
2018,09,28,15,02,22.30
2018,09,28,15,03,22.30
2018,09,28,15,04,22.40
2018,09,28,15,05,22.50
2018,09,28,15,06,22.50
2018,09,28,15,07,22.60
2018,09,28,15,08,22.70
2018,09,28,15,09,22.70
2018,09,28,15,10,22.60
2018,09,28,15,11,22.50
2018,09,28,15,12,22.50
2018,09,28,15,13,22.40
2018,09,28,15,14,22.40
2018,09,28,15,15,22.40
2018,09,28,15,16,22.40
2018,09,28,15,17,22.40
2018,09,28,15,18,22.30
2018,09,28,15,19,22.30
2018,09,28,15,20,22.30
2018,09,28,15,21,22.20
2018,09,28,15,22,22.10
2018,09,28,15,23,22.00
2018,09,28,15,24,21.90
2018,09,28,15,25,21.90
2018,09,28,15,26,21.90
2018,09,28,15,27,21.90
2018,09,28,15,28,21.80
2018,09,28,15,29,21.80
2018,09,28,15,30,21.80
2018,09,28,15,31,21.80
2018,09,28,15,32,21.80
2018,09,28,15,33,21.70
2018,09,28,15,34,21.60
2018,09,28,15,35,21.60
2018,09,28,15,36,21.50
2018,09,28,15,37,21.50
2018,09,28,15,38,21.40
2018,09,28,15,39,21.40
2018,09,28,15,40,21.40
2018,09,28,15,41,21.30
2018,09,28,15,42,21.30
2018,09,28,15,43,21.30
2018,09,28,15,44,21.30
2018,09,28,15,45,21.30
2018,09,28,15,46,21.30
2018,09,28,15,47,21.30
2018,09,28,15,48,21.20
2018,09,28,15,49,21.20
2018,09,28,15,50,21.20
2018,09,28,15,51,21.20
2018,09,28,15,52,21.20
2018,09,28,15,53,21.20
2018,09,28,15,54,21.20
2018,09,28,15,55,21.20
2018,09,28,15,56,21.20
2018,09,28,15,57,21.30
2018,09,28,15,58,21.30
2018,09,28,15,59,21.40
2018,09,28,16,00,21.50
2018,09,28,16,01,21.50
2018,09,28,16,02,21.60
2018,09,28,16,03,21.60
2018,09,28,16,04,21.60
2018,09,28,16,05,21.70
2018,09,28,16,06,21.80
2018,09,28,16,07,21.90
2018,09,28,16,08,21.90
2018,09,28,16,09,22.00
2018,09,28,16,10,22.10
2018,09,28,16,11,22.20
2018,09,28,16,12,22.20
2018,09,28,16,13,22.20
2018,09,28,16,14,22.20
2018,09,28,16,15,22.20
2018,09,28,16,16,22.20
2018,09,28,16,17,22.20
2018,09,28,16,18,22.20
2018,09,28,16,19,22.30
2018,09,28,16,20,22.30
2018,09,28,16,21,22.30
2018,09,28,16,22,22.20
2018,09,28,16,23,22.20
2018,09,28,16,24,22.20
2018,09,28,16,25,22.20
2018,09,28,16,26,22.20
2018,09,28,16,27,22.20
2018,09,28,16,28,22.20
2018,09,28,16,29,22.20
2018,09,28,16,30,22.20
2018,09,28,16,31,22.10
2018,09,28,16,32,22.10
2018,09,28,16,33,22.10
2018,09,28,16,34,22.10
2018,09,28,16,35,22.10
2018,09,28,16,36,22.10
2018,09,28,16,37,22.10
2018,09,28,16,38,22.10
2018,09,28,16,39,22.10
2018,09,28,16,40,22.10
2018,09,28,16,41,22.10
2018,09,28,16,42,22.00
2018,09,28,16,43,21.90
2018,09,28,16,44,21.90
2018,09,28,16,45,21.90
2018,09,28,16,46,21.90
2018,09,28,16,47,21.90
2018,09,28,16,48,21.90
2018,09,28,16,49,21.90
2018,09,28,16,50,21.90
2018,09,28,16,51,21.90
2018,09,28,16,52,21.90
2018,09,28,16,53,22.00
2018,09,28,16,54,22.00
2018,09,28,16,55,22.00
2018,09,28,16,56,22.10
2018,09,28,16,57,22.10
2018,09,28,16,58,22.10
2018,09,28,16,59,22.20
2018,09,28,17,00,22.20
2018,09,28,17,01,22.20
2018,09,28,17,02,22.20
2018,09,28,17,03,22.20
2018,09,28,17,04,22.20
2018,09,28,17,05,22.20
2018,09,28,17,06,22.20
2018,09,28,17,07,22.20
2018,09,28,17,08,22.20
2018,09,28,17,09,22.20
2018,09,28,17,10,22.20
2018,09,28,17,11,22.10
2018,09,28,17,12,22.10
2018,09,28,17,13,22.10
2018,09,28,17,14,22.10
2018,09,28,17,15,22.10
2018,09,28,17,16,22.10
2018,09,28,17,17,22.20
2018,09,28,17,18,22.20
2018,09,28,17,19,22.20